DW3560 Weather Reports


Display with metric or nautical units.
time (UTC)temp
F
wind
direction
speed
MPH
gust
MPH
rain 1hr
in
rain 24hr
in
rain mn
in
humidity
%
barometer
mb
20260505062501 52 341 0.0 1.0 0.00 0.00 0.00 85 1014.6
20260505062001 52 341 0.0 1.0 0.00 0.00 0.00 85 1014.6
20260505061501 52 340 0.0 2.0 0.00 0.00 0.00 85 1014.6
20260505061023 52 337 0.0 2.0 0.00 0.00 0.00 84 1014.6
20260505060502 52 344 0.0 2.0 0.00 0.00 0.00 84 1014.6
20260505060002 52 4 0.0 2.0 0.00 0.00 0.00 84 1014.6
20260505055522 52 4 0.0 1.0 0.00 0.00 0.00 84 1014.6
20260505055001 53 0 0.0 0.0 0.00 0.00 0.00 85 1014.6
20260505054502 53 0 0.0 0.0 0.00 0.00 0.00 85 1014.6
20260505054001 53 350 0.0 2.0 0.00 0.00 0.00 85 1014.6
20260505053523 53 349 0.0 2.0 0.00 0.00 0.00 85 1014.6
20260505053002 53 347 0.0 2.0 0.00 0.00 0.00 85 1014.6
20260505052501 53 349 0.0 1.0 0.00 0.00 0.00 85 1014.7
20260505052023 53 351 0.0 2.0 0.00 0.00 0.00 85 1014.8
20260505051502 53 352 0.0 2.0 0.00 0.00 0.00 85 1015.1
20260505051002 53 354 0.0 2.0 0.00 0.00 0.00 85 1015.3
20260505050502 53 9 0.0 2.0 0.00 0.00 0.00 85 1015.3
20260505041502 53 7 0.0 2.0 0.00 0.00 0.00 84 1014.3
20260505041001 53 5 0.0 1.0 0.00 0.00 0.00 84 1014.3
20260505040501 53 10 0.0 1.0 0.00 0.00 0.00 83 1014.3
20260505040002 53 8 0.0 2.0 0.00 0.00 0.00 83 1014.3
20260505035501 53 8 0.0 2.0 0.00 0.00 0.00 83 1014.3
20260505035001 53 13 0.0 2.0 0.00 0.00 0.00 83 1014.3
20260505034501 53 16 0.0 2.0 0.00 0.00 0.00 83 1014.3
20260505034002 53 23 0.0 1.0 0.00 0.00 0.00 82 1014.3
20260505033502 53 17 0.0 3.0 0.00 0.00 0.00 82 1014.3
20260505033023 54 360 0.0 3.0 0.00 0.00 0.00 82 1014.3
20260505032502 54 331 0.0 1.0 0.00 0.00 0.00 82 1014.3
20260505032023 54 322 0.0 2.0 0.00 0.00 0.00 82 1014.3
20260505031502 54 22 0.0 2.0 0.00 0.00 0.00 82 1014.3
20260505031002 54 8 0.0 3.0 0.00 0.00 0.00 82 1014.2
20260505030502 54 336 0.0 3.0 0.00 0.00 0.00 82 1014.2
20260505030003 54 319 0.0 4.0 0.00 0.00 0.00 82 1014.2
20260505025502 54 328 1.0 4.0 0.00 0.00 0.00 82 1014.2
20260505025001 55 313 0.0 4.0 0.00 0.00 0.00 82 1014.2
20260505024502 55 272 0.0 3.0 0.00 0.00 0.00 82 1014.2
20260505024002 55 317 0.0 2.0 0.00 0.00 0.00 82 1014.2
20260505023523 55 312 0.0 5.0 0.00 0.00 0.00 82 1014.2
20260505023023 55 314 0.0 5.0 0.00 0.00 0.00 83 1014.2
20260505022502 55 327 0.0 2.0 0.00 0.00 0.00 82 1014.2
20260505022002 56 338 0.0 3.0 0.00 0.00 0.00 82 1014.2
20260505021502 56 336 0.0 9.0 0.00 0.00 0.00 82 1014.2
20260505021002 56 329 0.0 9.0 0.00 0.00 0.00 82 1014.6
20260505020502 56 319 0.0 3.0 0.00 0.00 0.00 81 1014.6
20260505020002 56 325 0.0 3.0 0.00 0.00 0.00 81 1014.6
20260505015502 56 328 0.0 3.0 0.00 0.00 0.00 81 1014.6
20260505015002 56 241 0.0 3.0 0.00 0.00 0.00 81 1014.6
20260505014502 56 342 0.0 4.0 0.00 0.00 0.00 80 1014.6
20260505014002 56 355 0.0 4.0 0.00 0.00 0.00 80 1014.6
20260505013502 56 345 1.0 4.0 0.00 0.00 0.00 79 1014.6
20260505013002 56 339 1.0 4.0 0.00 0.00 0.00 79 1014.6
20260505012502 56 286 0.0 3.0 0.00 0.00 0.00 78 1014.6
20260505012001 57 336 0.0 3.0 0.00 0.00 0.00 78 1014.6
20260505011502 57 352 0.0 4.0 0.00 0.00 0.00 77 1014.6
20260505011002 57 353 1.0 6.0 0.00 0.00 0.00 76 1014.9
20260505010502 57 349 1.0 6.0 0.00 0.00 0.00 76 1014.9
20260505010002 58 341 2.0 11.0 0.00 0.00 0.00 75 1014.9
20260505005502 58 339 2.0 11.0 0.00 0.00 0.00 74 1014.9
20260505005002 58 336 0.0 3.0 0.00 0.00 0.00 74 1014.9
20260505004502 58 5 1.0 4.0 0.00 0.00 0.00 74 1014.9
20260505004023 59 7 1.0 6.0 0.00 0.00 0.00 73 1014.9
20260505003502 59 352 1.0 6.0 0.00 0.00 0.00 73 1014.9
20260505003023 59 351 1.0 3.0 0.00 0.00 0.00 72 1014.9
20260505002502 59 343 1.0 5.0 0.00 0.00 0.00 70 1014.9
20260505002002 59 354 1.0 5.0 0.00 0.00 0.00 69 1014.9
20260505001502 60 2 1.0 4.0 0.00 0.00 0.00 69 1014.9
20260505001002 60 357 1.0 4.0 0.00 0.00 0.00 69 1014.7
20260505000502 60 309 1.0 5.0 0.00 0.00 0.00 68 1014.7
20260505000002 60 274 1.0 5.0 0.00 0.00 0.00 67 1014.7
20260504235502 60 338 1.0 5.0 0.00 0.00 0.00 67 1014.7
20260504235002 60 350 1.0 5.0 0.00 0.00 0.00 65 1014.7
20260504234502 61 350 1.0 5.0 0.00 0.00 0.00 64 1014.7
20260504234023 61 330 1.0 5.0 0.00 0.00 0.00 65 1014.7
20260504233523 61 331 1.0 5.0 0.00 0.00 0.00 65 1014.7
20260504233002 61 354 1.0 9.0 0.00 0.00 0.00 65 1014.7
20260504232502 61 330 1.0 9.0 0.00 0.00 0.00 64 1014.7
20260504232002 62 314 1.0 9.0 0.00 0.00 0.00 64 1014.7
20260504231502 62 343 2.0 9.0 0.00 0.00 0.00 64 1014.7
20260504231002 62 350 1.0 9.0 0.00 0.00 0.00 64 1014.9
20260504230502 62 329 2.0 6.0 0.00 0.00 0.00 65 1014.9
20260504230002 62 329 2.0 9.0 0.00 0.00 0.00 64 1014.9
20260504225523 62 315 2.0 9.0 0.00 0.00 0.00 64 1014.9
20260504225002 63 248 1.0 4.0 0.00 0.00 0.00 66 1014.9
20260504224523 62 207 1.0 4.0 0.00 0.00 0.00 65 1014.9
20260504224002 62 168 1.0 6.0 0.00 0.00 0.00 66 1014.9
20260504223502 62 268 1.0 6.0 0.00 0.00 0.00 66 1014.9
20260504223002 62 244 1.0 5.0 0.00 0.00 0.00 66 1014.9
20260504222502 62 296 1.0 5.0 0.00 0.00 0.00 67 1014.9
20260504222002 62 295 1.0 7.0 0.00 0.00 0.00 67 1014.9
20260504221502 62 302 1.0 8.0 0.00 0.00 0.00 67 1014.9
20260504221002 62 281 1.0 8.0 0.00 0.00 0.00 67 1015.0
20260504220502 62 319 1.0 6.0 0.00 0.00 0.00 67 1015.0
20260504220002 62 318 1.0 6.0 0.00 0.00 0.00 66 1015.0
20260504215523 62 314 1.0 5.0 0.00 0.00 0.00 65 1015.0
20260504215002 62 339 1.0 5.0 0.00 0.00 0.00 66 1015.0
20260504214502 62 323 1.0 4.0 0.00 0.00 0.00 67 1015.0
20260504214002 62 292 2.0 5.0 0.00 0.00 0.00 67 1015.0
20260504213523 62 254 2.0 5.0 0.00 0.00 0.00 66 1015.0
20260504213023 62 239 2.0 7.0 0.00 0.00 0.00 66 1015.0
20260504212502 63 305 1.0 7.0 0.00 0.00 0.00 66 1015.0
20260504212002 63 324 1.0 7.0 0.00 0.00 0.00 67 1015.0
20260504211502 63 267 2.0 7.0 0.00 0.00 0.00 67 1015.0
20260504211023 62 279 1.0 6.0 0.00 0.00 0.00 68 1015.0
20260504210502 62 242 1.0 7.0 0.00 0.00 0.00 68 1015.0
20260504210002 62 239 2.0 7.0 0.00 0.00 0.00 68 1015.0
20260504205502 62 239 2.0 11.0 0.00 0.00 0.00 67 1015.0
20260504205002 62 241 2.0 11.0 0.00 0.00 0.00 67 1015.0
20260504204502 62 250 1.0 5.0 0.00 0.00 0.00 68 1015.0
20260504204002 62 231 2.0 6.0 0.00 0.00 0.00 68 1015.0
20260504203502 62 257 2.0 6.0 0.00 0.00 0.00 65 1015.0
20260504203023 62 236 2.0 7.0 0.00 0.00 0.00 66 1015.0
20260504202502 62 220 2.0 7.0 0.00 0.00 0.00 65 1015.0
20260504202023 63 231 2.0 7.0 0.00 0.00 0.00 64 1015.0
20260504201502 63 258 2.0 7.0 0.00 0.00 0.00 63 1015.0
20260504201023 63 312 2.0 8.0 0.00 0.00 0.00 66 1015.0
20260504200502 63 256 2.0 8.0 0.00 0.00 0.00 64 1015.0
20260504200002 64 258 2.0 6.0 0.00 0.00 0.00 64 1015.0
20260504195502 64 316 2.0 8.0 0.00 0.00 0.00 66 1015.0
20260504195002 64 264 2.0 8.0 0.00 0.00 0.00 65 1015.0
20260504194502 63 245 2.0 9.0 0.00 0.00 0.00 64 1015.0
20260504194002 63 245 2.0 9.0 0.00 0.00 0.00 64 1015.0
20260504193502 63 235 1.0 8.0 0.00 0.00 0.00 64 1015.0
20260504193002 63 330 1.0 6.0 0.00 0.00 0.00 65 1015.0
20260504192523 63 329 1.0 6.0 0.00 0.00 0.00 65 1015.0
20260504192023 63 281 1.0 5.0 0.00 0.00 0.00 66 1015.0
20260504191502 63 278 2.0 10.0 0.00 0.00 0.00 65 1015.0
20260504191002 63 253 1.0 5.0 0.00 0.00 0.00 64 1015.1
20260504190502 63 272 1.0 5.0 0.00 0.00 0.00 65 1015.1
20260504190002 62 335 1.0 5.0 0.00 0.00 0.00 66 1015.1
20260504185502 62 327 1.0 6.0 0.00 0.00 0.00 67 1015.1
20260504185002 62 279 1.0 6.0 0.00 0.00 0.00 65 1015.1
20260504184502 62 342 1.0 5.0 0.00 0.00 0.00 68 1015.1
20260504184002 61 352 2.0 6.0 0.00 0.00 0.00 68 1015.1
20260504183502 61 344 2.0 6.0 0.00 0.00 0.00 68 1015.1
20260504183023 61 338 1.0 5.0 0.00 0.00 0.00 70 1015.1
20260504182502 61 341 2.0 5.0 0.00 0.00 0.00 70 1015.1
20260504182002 60 347 1.0 8.0 0.00 0.00 0.00 69 1015.1
20260504181502 60 348 1.0 8.0 0.00 0.00 0.00 69 1015.1
20260504181002 60 349 1.0 8.0 0.00 0.00 0.00 71 1014.8
20260504180523 60 343 2.0 8.0 0.00 0.00 0.00 71 1014.8
20260504180023 60 275 2.0 6.0 0.00 0.00 0.00 72 1014.8
20260504175502 59 238 2.0 5.0 0.00 0.00 0.00 71 1014.8
20260504175002 60 280 1.0 4.0 0.00 0.00 0.00 71 1014.8
20260504174502 60 312 1.0 4.0 0.00 0.00 0.00 73 1014.8
20260504174023 59 302 1.0 4.0 0.00 0.00 0.00 73 1014.8
20260504173502 59 251 1.0 4.0 0.00 0.00 0.00 74 1014.8
20260504173002 58 216 1.0 5.0 0.00 0.00 0.00 75 1014.8
20260504172502 58 228 1.0 5.0 0.00 0.00 0.00 75 1014.8
20260504172002 57 218 2.0 6.0 0.00 0.00 0.00 76 1014.8
20260504171502 57 209 2.0 6.0 0.00 0.00 0.00 77 1014.8
20260504171003 57 205 3.0 6.0 0.00 0.00 0.00 76 1014.0
20260504170502 57 187 3.0 6.0 0.00 0.00 0.00 77 1014.0
20260504151023 52 148 1.0 4.0 0.00 0.00 0.00 84 1014.0
20260504150502 51 153 1.0 4.0 0.00 0.00 0.00 85 1014.0
20260504141002 50 144 1.0 2.0 0.00 0.00 0.00 87 1014.0
20260504140502 50 145 1.0 3.0 0.00 0.00 0.00 87 1014.0
20260504130502 50 190 1.0 2.0 0.00 0.00 0.00 87 1014.0
20260504110502 50 169 0.0 2.0 0.00 0.00 0.00 90 1014.0
20260504100502 51 226 0.0 2.0 0.00 0.00 0.00 90 1014.0
20260504082003 50 189 1.0 4.0 0.00 0.00 0.00 89 1014.3
20260504081502 50 189 1.0 4.0 0.00 0.00 0.00 89 1014.3
20260504081002 50 190 1.0 3.0 0.00 0.00 0.00 89 1014.3
20260504080502 50 188 0.0 2.0 0.00 0.00 0.00 89 1014.3